Weather History for KEBG - April, 2013

Change the Weather History Date:

Wednesday, April 17, 2013

  Actual Average (KMFE) Record (KMFE)
Temperature  
Mean Temperature 86 °F 77 °F  
Max Temperature 96 °F 87 °F 97 °F (1987)
Min Temperature 77 °F 66 °F 48 °F (1999)
Degree Days  
Heating Degree Days 0 0  
Month to date heating degree days 3  
Since 1 July heating degree days 574  
Cooling Degree Days 22 12  
Month to date cooling degree days 185  
Year to date cooling degree days 562  
Growing Degree Days 36 (Base 50)    
Moisture  
Dew Point 72 °F    
Average Humidity 69    
Maximum Humidity 90    
Minimum Humidity 36    
Precipitation  
Precipitation 0.00 in 0.04 in 2.46 in (2010)
Month to date precipitation 0.60  
Year to date precipitation 3.79  
Sea Level Pressure  
Sea Level Pressure 29.73 in    
Wind  
Wind Speed 15 mph (SE)    
Max Wind Speed 25 mph    
Max Gust Speed 34 mph    
Visibility 4 miles    
Events Rain    
T = Trace of Precipitation, MM = Missing Value Source: NWS Daily Summary

Daily Weather History Graph

Daily Weather History Graph

Search for Another Location

Airport or City:

Trip Planner

Search our weather history database for the weather conditions in past years. The results will help you decide how hot, cold, wet, or windy it might be!

Date:

Astronomy

Apr. 17, 2013 Rise Set
Actual Time 7:06 AM CDT 7:57 PM CDT
Civil Twilight 6:43 AM CDT 8:21 PM CDT
Nautical Twilight 6:15 AM CDT 8:49 PM CDT
Astronomical Twilight 5:46 AM CDT 9:18 PM CDT
Moon 12:32 PM CDT (4/17) 1:24 AM CDT (4/17)
Length of Visible Light 13h 38m
Length of Day
12h 50m
Waxing Crescent, 42% of the Moon is Illuminated
Apr 17
Waxing Crescent
Apr 18
First Quarter
Apr 25
Full
May 2
Last Quarter
May 9
New

Hourly Weather History & Observations

Time (CDT) Temp. Heat Index Dew Point Humidity Pressure Visibility Wind Dir Wind Speed Gust Speed Precip Events Conditions
12:15 AM 80.2 °F 84.9 °F 73.8 °F 81% 29.83 in 4.0 mi SSE 10.4 mph 17.3 mph N/A   Haze
12:35 AM 80.6 °F 85.4 °F 73.6 °F 79% 29.84 in 4.0 mi SE 11.5 mph - N/A   Haze
12:55 AM 80.2 °F 84.7 °F 73.4 °F 80% 29.84 in 4.0 mi SE 12.7 mph 17.3 mph N/A   Haze
1:15 AM 79.7 °F - 73.6 °F 81% 29.82 in 4.0 mi SE 15.0 mph 21.9 mph N/A   Haze
1:35 AM 78.8 °F - 73.8 °F 84% 29.83 in 3.0 mi SE 13.8 mph - N/A   Haze
1:55 AM 78.4 °F - 73.9 °F 86% 29.82 in 2.5 mi SSE 12.7 mph - N/A   Overcast
2:15 AM 78.1 °F - 74.1 °F 88% 29.82 in 1.8 mi SSE 9.2 mph - N/A   Overcast
2:35 AM 77.9 °F - 74.1 °F 88% 29.82 in 1.8 mi SE 9.2 mph - N/A Rain Light Rain
2:55 AM 77.9 °F - 74.3 °F 89% 29.81 in 1.8 mi SE 11.5 mph - N/A   Light Drizzle
3:15 AM 77.5 °F - 74.3 °F 90% 29.81 in 1.8 mi SE 11.5 mph - N/A Rain Light Rain
3:35 AM 77.4 °F - 73.9 °F 89% 29.80 in 2.0 mi SE 11.5 mph - N/A   Overcast
3:55 AM 77.4 °F - 73.9 °F 89% 29.80 in 2.5 mi SE 11.5 mph - N/A   Overcast
4:35 AM 77.2 °F - 73.8 °F 89% 29.80 in 3.0 mi SE 8.1 mph - N/A   Overcast
4:55 AM 77.4 °F - 73.9 °F 89% 29.80 in 4.0 mi SE 10.4 mph - N/A   Overcast
5:15 AM 77.4 °F - 73.8 °F 89% 29.79 in 3.0 mi SE 11.5 mph - N/A   Overcast
5:35 AM 77.2 °F - 73.6 °F 89% 29.78 in 2.5 mi SE 12.7 mph - N/A   Overcast
5:55 AM 77.2 °F - 73.6 °F 89% 29.78 in 2.5 mi SE 10.4 mph - N/A   Overcast
6:15 AM 77.0 °F - 73.4 °F 89% 29.78 in 3.0 mi SE 12.7 mph - N/A   Overcast
6:35 AM 77.2 °F - 73.4 °F 88% 29.78 in 4.0 mi SE 13.8 mph - N/A   Overcast
6:55 AM 77.4 °F - 73.0 °F 86% 29.79 in 3.0 mi SE 15.0 mph 18.4 mph N/A   Overcast
7:15 AM 77.5 °F - 72.7 °F 85% 29.78 in 3.0 mi SE 12.7 mph 18.4 mph N/A   Haze
7:35 AM 77.9 °F - 72.7 °F 84% 29.78 in 2.5 mi SE 12.7 mph - N/A   Haze
7:55 AM 77.9 °F - 72.5 °F 83% 29.78 in 3.0 mi SE 12.7 mph - N/A   Haze
8:15 AM 78.3 °F - 72.5 °F 82% 29.77 in 3.0 mi SE 15.0 mph 21.9 mph N/A   Haze
8:35 AM 78.4 °F - 72.5 °F 82% 29.78 in 3.0 mi SE 16.1 mph 20.7 mph N/A   Haze
8:55 AM 78.8 °F - 72.1 °F 80% 29.79 in 3.0 mi SSE 12.7 mph 17.3 mph N/A   Haze
9:15 AM 78.8 °F - 72.3 °F 80% 29.80 in 2.5 mi SSE 13.8 mph - N/A   Haze
9:35 AM 78.8 °F - 72.5 °F 81% 29.80 in 3.0 mi SSE 13.8 mph - N/A   Haze
9:55 AM 79.3 °F - 72.0 °F 78% 29.81 in 3.0 mi SSE 12.7 mph 21.9 mph N/A   Haze
10:15 AM 80.6 °F 84.7 °F 72.0 °F 75% 29.80 in 4.0 mi SSE 15.0 mph - N/A   Haze
10:35 AM 81.9 °F 86.4 °F 71.8 °F 71% 29.80 in 4.0 mi SSE 12.7 mph 16.1 mph N/A   Haze
10:55 AM 83.3 °F 88.2 °F 71.4 °F 67% 29.80 in 4.0 mi SSE 18.4 mph 23.0 mph N/A   Haze
11:15 AM 84.4 °F 89.7 °F 71.2 °F 65% 29.78 in 4.0 mi SE 19.6 mph - N/A   Haze
11:35 AM 86.4 °F 91.4 °F 70.3 °F 59% 29.77 in 5.0 mi SSE 19.6 mph 27.6 mph N/A   Haze
11:55 AM 88.3 °F 93.2 °F 70.0 °F 54% 29.76 in 4.0 mi SSE 21.9 mph 26.5 mph N/A   Haze
12:15 PM 89.6 °F 95.2 °F 70.2 °F 53% 29.75 in 4.0 mi SE 18.4 mph 23.0 mph N/A   Haze
12:35 PM 90.7 °F 95.9 °F 70.0 °F 50% 29.74 in 4.0 mi SSE 19.6 mph 26.5 mph N/A   Haze
12:55 PM 92.8 °F 98.1 °F 69.1 °F 46% 29.73 in 5.0 mi SE 23.0 mph 31.1 mph N/A   Haze
1:15 PM 94.6 °F 99.4 °F 68.4 °F 42% 29.72 in 5.0 mi SSE 20.7 mph 27.6 mph N/A   Haze
1:35 PM 94.6 °F 98.9 °F 67.5 °F 41% 29.71 in 5.0 mi SSE 19.6 mph 34.5 mph N/A   Haze
1:55 PM 95.0 °F 99.0 °F 66.9 °F 40% 29.70 in 5.0 mi SSE 21.9 mph 32.2 mph N/A   Haze
2:15 PM 95.7 °F 98.7 °F 65.5 °F 37% 29.69 in 5.0 mi South 23.0 mph 31.1 mph N/A   Haze
2:35 PM 96.3 °F 99.1 °F 65.5 °F 36% 29.67 in 5.0 mi SSE 18.4 mph 29.9 mph N/A   Haze
2:55 PM 96.4 °F 100.6 °F 66.7 °F 38% 29.67 in 5.0 mi SSE 19.6 mph 27.6 mph N/A   Haze
3:35 PM 95.7 °F 99.8 °F 67.3 °F 39% 29.65 in 5.0 mi SSE 20.7 mph 28.8 mph N/A   Haze
4:15 PM 95.9 °F 99.6 °F 66.6 °F 38% 29.63 in 5.0 mi SSE 23.0 mph 27.6 mph N/A   Haze
4:35 PM 95.5 °F 100.0 °F 67.6 °F 40% 29.62 in 5.0 mi SSE 20.7 mph 29.9 mph N/A   Haze
4:55 PM 94.5 °F 99.1 °F 68.0 °F 42% 29.61 in 5.0 mi SE 21.9 mph 31.1 mph N/A   Haze
5:15 PM 93.9 °F 98.6 °F 68.2 °F 43% 29.61 in 5.0 mi SSE 17.3 mph 28.8 mph N/A   Haze
5:35 PM 93.2 °F 99.4 °F 70.5 °F 47% 29.60 in 4.0 mi SE 23.0 mph 29.9 mph N/A   Haze
5:55 PM 91.8 °F 98.1 °F 70.9 °F 50% 29.60 in 5.0 mi SE 25.3 mph 29.9 mph N/A   Haze
6:15 PM 90.3 °F 96.7 °F 71.2 °F 53% 29.61 in 4.0 mi SE 20.7 mph 27.6 mph N/A   Haze
6:35 PM 89.1 °F 95.5 °F 71.4 °F 56% 29.62 in 5.0 mi SE 23.0 mph 28.8 mph N/A   Haze
6:55 PM 87.4 °F 93.5 °F 71.6 °F 59% 29.61 in 4.0 mi SE 23.0 mph 28.8 mph N/A   Haze
7:15 PM 86.9 °F 93.3 °F 72.0 °F 61% 29.61 in 4.0 mi SSE 19.6 mph 25.3 mph N/A   Haze
7:35 PM 85.5 °F 91.8 °F 72.3 °F 65% 29.62 in 4.0 mi SE 17.3 mph - N/A   Haze
7:55 PM 84.0 °F 89.6 °F 72.1 °F 67% 29.63 in 5.0 mi SSE 15.0 mph 25.3 mph N/A   Haze
8:15 PM 82.6 °F 87.8 °F 72.3 °F 71% 29.63 in 5.0 mi SSE 20.7 mph 25.3 mph N/A   Haze
8:35 PM 81.9 °F 86.6 °F 72.1 °F 72% 29.64 in 7.0 mi SSE 18.4 mph 26.5 mph N/A   Scattered Clouds
8:55 PM 81.9 °F 86.6 °F 72.1 °F 72% 29.65 in 5.0 mi SSE 20.7 mph 26.5 mph N/A   Haze
9:15 PM 81.7 °F 86.7 °F 72.5 °F 74% 29.66 in 5.0 mi SSE 20.7 mph 26.5 mph N/A   Haze
9:35 PM 81.7 °F 86.7 °F 72.5 °F 74% 29.67 in 5.0 mi SSE 16.1 mph 24.2 mph N/A   Haze
9:55 PM 81.5 °F 86.3 °F 72.5 °F 74% 29.68 in 5.0 mi SSE 19.6 mph 25.3 mph N/A   Haze
10:15 PM 81.1 °F 85.6 °F 72.1 °F 74% 29.69 in 5.0 mi SSE 17.3 mph 24.2 mph N/A   Haze
10:35 PM 81.0 °F 85.2 °F 72.1 °F 74% 29.68 in 5.0 mi SSE 17.3 mph 26.5 mph N/A   Haze
10:55 PM 80.8 °F 84.9 °F 72.0 °F 74% 29.69 in 5.0 mi SSE 18.4 mph 25.3 mph N/A   Haze
11:15 PM 80.6 °F 84.7 °F 72.0 °F 75% 29.69 in 5.0 mi SSE 16.1 mph 25.3 mph N/A   Haze
11:35 PM 80.6 °F 84.7 °F 72.0 °F 75% 29.68 in 5.0 mi SSE 19.6 mph 26.5 mph N/A   Haze
11:55 PM 80.4 °F 84.4 °F 72.0 °F 75% 29.68 in 5.0 mi SE 15.0 mph 25.3 mph N/A   Haze